DLH721 LOWW-EGLL

Flight info

Callsign DLH721
Flight time N/A
Altitude 40000
Route UMSU3C/29 BUWUT DCT DITIS DCT RAPET DCT MASEK DCT ARPEG DCT ABNED L980 LOGAN
Aircraft A359/H-SDE2E3GHIJ3J4J5LM1ORWXY/LB1D1

Departure

Time 2026-04-22 19:34
Airport Vienna International Airport (LOWW)

Arrival

Time N/A
Airport London Heathrow Airport (EGLL)
Time Latitude Longitude Altitude Speed Heading
2026-04-22 18:40 48.11995 16.56978 619 ft 0 kts 30°
2026-04-22 18:44 48.11995 16.56977 619 ft 0 kts 30°
2026-04-22 18:55 48.11994 16.56977 605 ft 0 kts 30°
2026-04-22 19:16 48.11988 16.56972 622 ft 4 kts 35°
2026-04-22 19:16 48.11974 16.56944 621 ft 4 kts 86°
2026-04-22 19:16 48.11978 16.56906 621 ft 4 kts 114°
2026-04-22 19:16 48.11980 16.56899 621 ft 0 kts 115°
2026-04-22 19:23 48.11962 16.56956 617 ft 19 kts 115°
2026-04-22 19:23 48.11904 16.57132 618 ft 19 kts 121°
2026-04-22 19:24 48.11842 16.57254 618 ft 11 kts 120°
2026-04-22 19:24 48.11811 16.57385 616 ft 15 kts 98°
2026-04-22 19:24 48.11803 16.57443 623 ft 5 kts 113°
2026-04-22 19:24 48.11754 16.57491 622 ft 11 kts 160°
2026-04-22 19:25 48.11667 16.57531 628 ft 15 kts 163°
2026-04-22 19:25 48.11563 16.57575 622 ft 16 kts 165°
2026-04-22 19:25 48.11454 16.57620 630 ft 15 kts 164°
2026-04-22 19:25 48.11348 16.57665 625 ft 11 kts 163°
2026-04-22 19:26 48.11341 16.57668 623 ft 0 kts 163°
2026-04-22 19:26 48.11329 16.57673 629 ft 8 kts 163°
2026-04-22 19:26 48.11263 16.57677 625 ft 5 kts 194°
2026-04-22 19:26 48.11253 16.57671 626 ft 0 kts 200°
2026-04-22 19:27 48.11248 16.57669 627 ft 3 kts 201°
2026-04-22 19:27 48.11243 16.57665 629 ft 0 kts 202°
2026-04-22 19:28 48.11238 16.57662 630 ft 0 kts 203°
2026-04-22 19:28 48.11210 16.57642 626 ft 0 kts 207°
2026-04-22 19:29 48.11202 16.57636 627 ft 6 kts 206°
2026-04-22 19:29 48.11170 16.57614 628 ft 7 kts 204°
2026-04-22 19:29 48.11127 16.57608 636 ft 0 kts 167°
2026-04-22 19:31 48.11081 16.57641 633 ft 3 kts 162°
2026-04-22 19:31 48.11060 16.57643 633 ft 1 kts 186°
2026-04-22 19:31 48.11057 16.57641 632 ft 0 kts 192°
2026-04-22 19:32 48.11056 16.57641 632 ft 1 kts 192°
2026-04-22 19:33 48.10988 16.57606 634 ft 17 kts 201°
2026-04-22 19:33 48.10932 16.57541 639 ft 7 kts 246°
2026-04-22 19:33 48.10932 16.57502 635 ft 1 kts 281°
2026-04-22 19:33 48.11012 16.57235 635 ft 68 kts 297°
2026-04-22 19:34 48.11334 16.56250 633 ft 140 kts 296°
2026-04-22 19:34 48.11816 16.54716 982 ft 173 kts 295°
2026-04-22 19:34 48.12263 16.53006 1771 ft 178 kts 295°
2026-04-22 19:34 48.12212 16.51053 2403 ft 212 kts 253°
2026-04-22 19:35 48.11186 16.49412 3118 ft 224 kts 213°
2026-04-22 19:35 48.09757 16.48340 3745 ft 228 kts 211°
2026-04-22 19:35 48.08430 16.47078 4333 ft 230 kts 220°
2026-04-22 19:35 48.07393 16.45282 4843 ft 231 kts 243°
2026-04-22 19:36 48.06603 16.43175 5001 ft 232 kts 248°
2026-04-22 19:36 48.05892 16.41002 5135 ft 234 kts 250°
2026-04-22 19:36 48.05177 16.38699 5375 ft 257 kts 250°
2026-04-22 19:36 48.04413 16.36186 5882 ft 271 kts 250°
2026-04-22 19:37 48.03660 16.33600 6731 ft 271 kts 254°
2026-04-22 19:37 48.03345 16.30862 7480 ft 268 kts 275°
2026-04-22 19:37 48.03427 16.28066 8206 ft 272 kts 279°
2026-04-22 19:37 48.03565 16.25265 8956 ft 276 kts 278°
2026-04-22 19:38 48.03736 16.22344 9699 ft 281 kts 282°
2026-04-22 19:38 48.04298 16.19608 10384 ft 282 kts 299°
2026-04-22 19:38 48.05209 16.16917 10719 ft 299 kts 302°
2026-04-22 19:38 48.06233 16.14101 11000 ft 318 kts 302°
2026-04-22 19:39 48.07309 16.11119 11305 ft 333 kts 302°
2026-04-22 19:39 48.08413 16.08019 11848 ft 340 kts 302°
2026-04-22 19:39 48.09526 16.04874 12454 ft 345 kts 302°
2026-04-22 19:39 48.10656 16.01668 13060 ft 350 kts 302°
2026-04-22 19:40 48.11830 15.98457 13683 ft 353 kts 306°
2026-04-22 19:40 48.13313 15.95564 14234 ft 351 kts 319°
2026-04-22 19:40 48.15219 15.93312 14808 ft 348 kts 333°
2026-04-22 19:40 48.17394 15.91745 15348 ft 348 kts 341°
2026-04-22 19:41 48.19664 15.90384 15932 ft 351 kts 342°
2026-04-22 19:41 48.21946 15.89033 16520 ft 354 kts 342°
2026-04-22 19:41 48.24319 15.87619 17094 ft 357 kts 342°
2026-04-22 19:41 48.26534 15.86290 17642 ft 360 kts 342°
2026-04-22 19:42 48.28862 15.84888 18195 ft 364 kts 342°
2026-04-22 19:42 48.31216 15.83467 18713 ft 367 kts 342°
2026-04-22 19:42 48.33596 15.82028 19183 ft 370 kts 343°
2026-04-22 19:42 48.36001 15.80572 19625 ft 374 kts 343°
2026-04-22 19:43 48.40870 15.77618 20547 ft 381 kts 343°
2026-04-22 19:43 48.43334 15.76120 20999 ft 384 kts 343°
2026-04-22 19:43 48.45790 15.74625 21397 ft 387 kts 343°
2026-04-22 19:44 48.48302 15.73096 21840 ft 391 kts 343°
2026-04-22 19:44 48.50833 15.71554 22238 ft 395 kts 343°
2026-04-22 19:44 48.53390 15.69992 22669 ft 398 kts 343°
2026-04-22 19:44 48.55966 15.68417 23077 ft 401 kts 343°
2026-04-22 19:45 48.58563 15.66828 23481 ft 405 kts 343°
2026-04-22 19:45 48.61184 15.65223 23885 ft 408 kts 343°
2026-04-22 19:45 48.63821 15.63604 24235 ft 412 kts 343°
2026-04-22 19:45 48.66420 15.61650 24587 ft 422 kts 334°
2026-04-22 19:46 48.68779 15.58912 24924 ft 435 kts 322°
2026-04-22 19:46 48.70832 15.55480 25266 ft 444 kts 314°
2026-04-22 19:46 48.72685 15.51678 25613 ft 452 kts 310°
2026-04-22 19:46 48.74428 15.47680 26025 ft 457 kts 308°
2026-04-22 19:47 48.76132 15.43602 26378 ft 461 kts 307°
2026-04-22 19:47 48.77855 15.39468 26757 ft 466 kts 307°
2026-04-22 19:47 48.79011 15.36718 27034 ft 469 kts 308°
2026-04-22 19:47 48.81394 15.31126 27605 ft 474 kts 308°
2026-04-22 19:48 48.83210 15.26924 28047 ft 479 kts 308°
2026-04-22 19:48 48.85052 15.22685 28495 ft 483 kts 308°
2026-04-22 19:48 48.86915 15.18408 28925 ft 488 kts 309°
2026-04-22 19:48 48.88793 15.14092 29351 ft 493 kts 309°
2026-04-22 19:49 48.90694 15.09735 29798 ft 497 kts 309°
2026-04-22 19:49 48.92675 15.05488 30210 ft 500 kts 311°
2026-04-22 19:49 48.94768 15.01236 30582 ft 504 kts 312°
2026-04-22 19:49 48.96893 14.96994 31104 ft 504 kts 313°
2026-04-22 19:50 48.99012 14.92754 31640 ft 504 kts 312°
2026-04-22 19:50 49.01124 14.88490 32145 ft 504 kts 312°
2026-04-22 19:50 49.03231 14.84198 32545 ft 507 kts 311°
2026-04-22 19:50 49.05339 14.79871 32938 ft 509 kts 311°
2026-04-22 19:51 49.07449 14.75516 33329 ft 511 kts 311°
2026-04-22 19:51 49.09555 14.71153 33720 ft 513 kts 311°
2026-04-22 19:51 49.11675 14.66752 34127 ft 513 kts 311°
2026-04-22 19:51 49.13775 14.62382 34624 ft 510 kts 310°
2026-04-22 19:52 49.15867 14.58019 35150 ft 506 kts 310°
2026-04-22 19:52 49.17943 14.53685 35648 ft 503 kts 310°
2026-04-22 19:52 49.20006 14.49375 36142 ft 501 kts 310°
2026-04-22 19:52 49.22057 14.45086 36584 ft 499 kts 310°
2026-04-22 19:53 49.24103 14.40803 37003 ft 497 kts 310°
2026-04-22 19:53 49.26138 14.36535 37457 ft 495 kts 310°
2026-04-22 19:53 49.27480 14.33716 37743 ft 494 kts 310°
2026-04-22 19:53 49.30153 14.28092 38343 ft 491 kts 310°
2026-04-22 19:54 49.32159 14.23865 38726 ft 491 kts 309°
2026-04-22 19:54 49.34168 14.19625 39024 ft 491 kts 309°
2026-04-22 19:54 49.36174 14.15384 39293 ft 490 kts 309°
2026-04-22 19:54 49.38174 14.11150 39550 ft 490 kts 309°
2026-04-22 19:55 49.40175 14.06905 39792 ft 490 kts 309°
2026-04-22 19:55 49.42172 14.02662 40040 ft 490 kts 309°
2026-04-22 19:55 49.44170 13.98411 40241 ft 491 kts 309°
2026-04-22 19:55 49.46139 13.94215 40289 ft 491 kts 309°
2026-04-22 19:56 49.50125 13.85696 40291 ft 490 kts 309°
2026-04-22 19:56 49.54109 13.77159 40293 ft 490 kts 309°
2026-04-22 19:57 49.58086 13.68610 40294 ft 490 kts 309°
2026-04-22 19:57 49.62056 13.60047 40289 ft 491 kts 309°
2026-04-22 19:58 49.66016 13.51478 40291 ft 491 kts 309°
2026-04-22 19:58 49.69302 13.44348 40290 ft 491 kts 309°
2026-04-22 20:00 49.83138 13.14112 40288 ft 492 kts 309°
2026-04-22 20:01 49.87076 13.05441 40298 ft 492 kts 308°
2026-04-22 20:01 49.91007 12.96757 40299 ft 492 kts 308°
2026-04-22 20:02 49.94937 12.88048 40300 ft 493 kts 308°
2026-04-22 20:02 49.98871 12.79302 40298 ft 494 kts 308°
2026-04-22 20:03 50.02801 12.70534 40303 ft 494 kts 308°
2026-04-22 20:03 50.06719 12.61765 40302 ft 494 kts 308°
2026-04-22 20:04 50.10609 12.53031 40303 ft 494 kts 308°
2026-04-22 20:04 50.14518 12.44224 40303 ft 494 kts 308°
2026-04-22 20:05 50.18297 12.35266 40315 ft 497 kts 301°
2026-04-22 20:05 50.20925 12.25246 40317 ft 500 kts 292°
2026-04-22 20:06 50.23128 12.14909 40319 ft 501 kts 291°
2026-04-22 20:06 50.25250 12.04537 40311 ft 501 kts 291°
2026-04-22 20:07 50.27378 11.94151 40320 ft 502 kts 291°
2026-04-22 20:07 50.29508 11.83780 40320 ft 501 kts 291°
2026-04-22 20:08 50.31642 11.73374 40317 ft 501 kts 291°
2026-04-22 20:08 50.33763 11.62978 40322 ft 502 kts 290°
2026-04-22 20:09 50.35872 11.52575 40320 ft 501 kts 290°
2026-04-22 20:09 50.37959 11.42230 40325 ft 500 kts 290°
2026-04-22 20:10 50.40044 11.31836 40334 ft 500 kts 290°
2026-04-22 20:10 50.42122 11.21423 40332 ft 500 kts 290°
2026-04-22 20:11 50.44190 11.11006 40337 ft 499 kts 290°
2026-04-22 20:11 50.46242 11.00614 40324 ft 498 kts 290°
2026-04-22 20:12 50.48284 10.90211 40343 ft 498 kts 290°
2026-04-22 20:12 50.50316 10.79808 40328 ft 499 kts 290°
2026-04-22 20:13 50.52344 10.69372 40336 ft 498 kts 290°
2026-04-22 20:13 50.54347 10.59000 40336 ft 498 kts 290°
2026-04-22 20:14 50.56350 10.48575 40337 ft 498 kts 290°
2026-04-22 20:14 50.58348 10.38121 40336 ft 498 kts 289°
2026-04-22 20:15 50.60334 10.27671 40319 ft 498 kts 289°
2026-04-22 20:15 50.62311 10.17207 40336 ft 498 kts 289°
2026-04-22 20:16 50.64276 10.06753 40336 ft 498 kts 289°
2026-04-22 20:16 50.66235 9.96266 40335 ft 498 kts 289°
2026-04-22 20:17 50.68183 9.85785 40332 ft 498 kts 289°
2026-04-22 20:17 50.70122 9.75292 40329 ft 499 kts 289°
2026-04-22 20:18 50.72054 9.64774 40326 ft 499 kts 289°
2026-04-22 20:18 50.74049 9.54285 40329 ft 498 kts 292°
2026-04-22 20:19 50.76421 9.44025 40330 ft 497 kts 294°
2026-04-22 20:19 50.78836 9.33864 40333 ft 497 kts 293°
2026-04-22 20:20 50.81208 9.23576 40337 ft 498 kts 292°
2026-04-22 20:20 50.83532 9.13267 40336 ft 498 kts 292°
2026-04-22 20:21 50.85838 9.02941 40337 ft 498 kts 292°
2026-04-22 20:21 50.87990 8.93268 40337 ft 498 kts 292°
2026-04-22 20:22 50.90172 8.83416 40341 ft 498 kts 292°
2026-04-22 20:22 50.92436 8.73029 40341 ft 498 kts 291°
2026-04-22 20:23 50.94667 8.62635 40345 ft 498 kts 291°
2026-04-22 20:23 50.96913 8.52231 40343 ft 498 kts 290°
2026-04-22 20:24 50.99135 8.41836 40346 ft 501 kts 290°
2026-04-22 20:24 51.01405 8.31251 40348 ft 502 kts 290°
2026-04-22 20:25 51.03513 8.20744 40351 ft 498 kts 288°
2026-04-22 20:25 51.05461 8.10191 40350 ft 497 kts 289°
2026-04-22 20:26 51.11207 7.79167 40352 ft 498 kts 289°
2026-04-22 20:26 51.18836 7.36769 40344 ft 497 kts 288°
2026-04-22 20:27 51.26274 6.94469 40347 ft 496 kts 288°
2026-04-22 20:27 51.33600 6.51793 40355 ft 495 kts 287°
2026-04-22 20:28 51.40723 6.09263 40365 ft 493 kts 287°
2026-04-22 20:28 51.47686 5.66641 40374 ft 493 kts 287°
2026-04-22 20:29 51.54467 5.24053 40371 ft 491 kts 286°
2026-04-22 20:29 51.61010 4.81889 40378 ft 489 kts 286°
2026-04-22 20:30 51.65486 4.38684 40354 ft 491 kts 278°
2026-04-22 20:30 51.68429 3.94855 40361 ft 491 kts 278°
2026-04-22 20:31 51.71225 3.51163 40365 ft 489 kts 278°
2026-04-22 20:31 51.72304 3.33560 40363 ft 489 kts 278°
2026-04-22 20:32 51.72960 3.22643 40371 ft 489 kts 278°
2026-04-22 20:32 51.73606 3.11723 40371 ft 489 kts 277°
2026-04-22 20:33 51.74238 3.00860 40377 ft 489 kts 277°
2026-04-22 20:33 51.74867 2.89864 40365 ft 489 kts 277°
2026-04-22 20:34 51.75477 2.79029 40380 ft 487 kts 278°
2026-04-22 20:34 51.76081 2.68137 40384 ft 487 kts 278°
2026-04-22 20:35 51.76677 2.57253 40380 ft 487 kts 277°
2026-04-22 20:35 51.77257 2.46498 40384 ft 476 kts 275°
2026-04-22 20:36 51.76657 2.35897 40381 ft 477 kts 258°
2026-04-22 20:36 51.73984 2.26106 40386 ft 481 kts 238°
2026-04-22 20:36 51.71876 2.21893 40387 ft 484 kts 227°
2026-04-22 20:37 51.69326 2.18326 40377 ft 486 kts 217°
2026-04-22 20:37 51.66408 2.15566 40375 ft 489 kts 204°
2026-04-22 20:37 51.63143 2.14023 40388 ft 490 kts 190°
2026-04-22 20:37 51.59788 2.13206 40076 ft 488 kts 188°
2026-04-22 20:38 51.56381 2.12405 39373 ft 501 kts 189°
2026-04-22 20:38 51.52906 2.11510 38632 ft 508 kts 191°
2026-04-22 20:38 51.49418 2.10552 37897 ft 510 kts 191°
2026-04-22 20:38 51.45917 2.09559 36948 ft 512 kts 192°
2026-04-22 20:39 51.42380 2.08537 35867 ft 518 kts 192°
2026-04-22 20:39 51.38858 2.07510 34774 ft 524 kts 192°
2026-04-22 20:39 51.35249 2.06453 33583 ft 530 kts 193°
2026-04-22 20:39 51.31621 2.05390 32479 ft 532 kts 192°
2026-04-22 20:40 51.27971 2.04322 31397 ft 533 kts 192°
2026-04-22 20:40 51.24305 2.03249 30299 ft 535 kts 192°
2026-04-22 20:40 51.20653 2.02178 29201 ft 533 kts 192°
2026-04-22 20:40 51.17103 2.00627 28316 ft 524 kts 204°
2026-04-22 20:41 51.13958 1.97848 27519 ft 513 kts 219°
2026-04-22 20:41 51.11410 1.93979 26700 ft 502 kts 234°
2026-04-22 20:41 51.09614 1.89297 25873 ft 492 kts 249°
2026-04-22 20:41 51.08692 1.84159 25155 ft 479 kts 265°
2026-04-22 20:42 51.08661 1.78924 24323 ft 470 kts 280°
2026-04-22 20:42 51.09321 1.73856 23326 ft 467 kts 285°
2026-04-22 20:42 51.09845 1.68742 22238 ft 469 kts 278°
2026-04-22 20:42 51.10029 1.63563 21256 ft 469 kts 272°
2026-04-22 20:43 51.09979 1.58395 20432 ft 465 kts 269°
2026-04-22 20:43 51.09794 1.53335 20137 ft 449 kts 267°
2026-04-22 20:43 51.09550 1.48428 19903 ft 445 kts 266°
2026-04-22 20:43 51.09267 1.43537 19682 ft 438 kts 265°
2026-04-22 20:44 51.09069 1.40369 19450 ft 430 kts 264°
2026-04-22 20:44 51.08758 1.35604 18837 ft 426 kts 264°
2026-04-22 20:44 51.08448 1.31005 18160 ft 423 kts 263°
2026-04-22 20:44 51.08126 1.26352 17536 ft 419 kts 263°
2026-04-22 20:45 51.07805 1.21777 16918 ft 415 kts 263°
2026-04-22 20:45 51.07484 1.17240 16300 ft 411 kts 263°
2026-04-22 20:45 51.07163 1.12747 15680 ft 408 kts 263°
2026-04-22 20:45 51.06842 1.08280 15066 ft 405 kts 262°
2026-04-22 20:46 51.06201 0.99444 13807 ft 399 kts 262°
2026-04-22 20:46 51.05872 0.95103 13404 ft 388 kts 261°
2026-04-22 20:46 51.05562 0.90933 13189 ft 372 kts 262°
2026-04-22 20:47 51.05277 0.86929 12988 ft 356 kts 262°
2026-04-22 20:47 51.05008 0.83095 12787 ft 343 kts 262°
2026-04-22 20:47 51.04750 0.79396 12579 ft 330 kts 262°
2026-04-22 20:47 51.04504 0.75830 12306 ft 321 kts 262°
2026-04-22 20:48 51.04264 0.72342 11931 ft 315 kts 262°
2026-04-22 20:48 51.04026 0.68895 11584 ft 311 kts 262°
2026-04-22 20:48 51.03792 0.65488 11235 ft 309 kts 262°
2026-04-22 20:48 51.03559 0.62108 10884 ft 307 kts 262°
2026-04-22 20:49 51.03324 0.58747 10536 ft 305 kts 262°
2026-04-22 20:49 51.03089 0.55399 10159 ft 304 kts 262°
2026-04-22 20:49 51.02855 0.52074 9776 ft 302 kts 262°
2026-04-22 20:49 51.02624 0.48813 9518 ft 299 kts 262°
2026-04-22 20:50 51.02391 0.45530 9492 ft 300 kts 262°
2026-04-22 20:50 51.02160 0.42228 9487 ft 300 kts 262°
2026-04-22 20:50 51.01930 0.38940 9484 ft 300 kts 262°
2026-04-22 20:50 51.01701 0.35675 9481 ft 292 kts 262°
2026-04-22 20:51 51.01484 0.32574 9483 ft 274 kts 262°
2026-04-22 20:51 51.01283 0.29626 9476 ft 266 kts 262°
2026-04-22 20:51 51.01086 0.26712 9465 ft 266 kts 262°
2026-04-22 20:51 51.00886 0.23796 9453 ft 266 kts 262°
2026-04-22 20:52 51.00685 0.20871 9442 ft 266 kts 262°
2026-04-22 20:52 51.00483 0.17958 9431 ft 266 kts 262°
2026-04-22 20:52 51.00281 0.15032 9422 ft 266 kts 262°
2026-04-22 20:52 51.00081 0.12110 9409 ft 266 kts 262°
2026-04-22 20:53 50.99879 0.09187 9398 ft 266 kts 262°
2026-04-22 20:53 50.99678 0.06272 9388 ft 266 kts 262°
2026-04-22 20:53 50.99477 0.03347 9377 ft 266 kts 262°
2026-04-22 20:53 50.99274 0.00427 9365 ft 266 kts 262°
2026-04-22 20:54 50.99078 -0.02445 9347 ft 256 kts 262°
2026-04-22 20:54 50.98891 -0.05268 9345 ft 264 kts 262°
2026-04-22 20:54 50.98694 -0.08216 9340 ft 266 kts 262°
2026-04-22 20:54 50.98498 -0.11146 9341 ft 266 kts 262°
2026-04-22 20:55 50.98320 -0.14069 9340 ft 267 kts 264°
2026-04-22 20:55 50.98464 -0.16978 9344 ft 268 kts 278°
2026-04-22 20:55 50.98809 -0.19844 9138 ft 262 kts 280°
2026-04-22 20:55 50.99181 -0.22691 8690 ft 265 kts 281°
2026-04-22 20:56 50.99556 -0.25561 8322 ft 265 kts 281°
2026-04-22 20:56 50.99926 -0.28413 8003 ft 263 kts 281°
2026-04-22 20:56 51.00292 -0.31243 7752 ft 258 kts 281°
2026-04-22 20:56 51.00645 -0.33979 7619 ft 248 kts 281°
2026-04-22 20:57 51.00983 -0.36606 7514 ft 238 kts 280°
2026-04-22 20:57 51.01082 -0.39157 7382 ft 226 kts 264°
2026-04-22 20:57 51.00935 -0.41575 7354 ft 215 kts 261°
2026-04-22 20:57 51.00758 -0.43910 7272 ft 211 kts 261°
2026-04-22 20:58 51.00580 -0.46213 7020 ft 211 kts 261°
2026-04-22 20:58 51.00399 -0.48524 6746 ft 211 kts 261°
2026-04-22 20:58 51.00218 -0.50837 6477 ft 211 kts 261°
2026-04-22 20:58 51.00038 -0.53142 6208 ft 210 kts 260°
2026-04-22 20:59 50.99861 -0.55432 5948 ft 209 kts 260°
2026-04-22 20:59 50.99721 -0.57734 5667 ft 210 kts 268°
2026-04-22 20:59 51.00141 -0.59931 5363 ft 211 kts 306°
2026-04-22 20:59 51.01263 -0.61354 5103 ft 206 kts 341°
2026-04-22 21:00 51.02610 -0.62040 5038 ft 203 kts 349°
2026-04-22 21:00 51.03992 -0.62403 5008 ft 200 kts
2026-04-22 21:00 51.05232 -0.61656 5014 ft 190 kts 42°
2026-04-22 21:00 51.06221 -0.60291 5013 ft 188 kts 50°
2026-04-22 21:01 51.07147 -0.58843 4795 ft 185 kts 50°
2026-04-22 21:01 51.08066 -0.57397 4474 ft 185 kts 51°
2026-04-22 21:01 51.09001 -0.55943 3997 ft 193 kts 50°
2026-04-22 21:01 51.09790 -0.54218 3400 ft 194 kts 71°
2026-04-22 21:02 51.10203 -0.52197 3157 ft 191 kts 81°
2026-04-22 21:02 51.10491 -0.50236 3070 ft 170 kts 81°
2026-04-22 21:02 51.10732 -0.48542 3024 ft 143 kts 83°
2026-04-22 21:02 51.10926 -0.47140 3020 ft 119 kts 84°
2026-04-22 21:03 51.11096 -0.45909 3032 ft 112 kts 84°
2026-04-22 21:03 51.11264 -0.44693 3019 ft 113 kts 84°
2026-04-22 21:03 51.11433 -0.43470 3007 ft 113 kts 84°
2026-04-22 21:03 51.11604 -0.42246 2977 ft 114 kts 84°
2026-04-22 21:04 51.11777 -0.41014 2840 ft 114 kts 84°
2026-04-22 21:04 51.11947 -0.39794 2684 ft 112 kts 83°
2026-04-22 21:04 51.12118 -0.38533 2530 ft 126 kts 83°
2026-04-22 21:04 51.12316 -0.37102 2332 ft 136 kts 82°
2026-04-22 21:05 51.12521 -0.35632 2154 ft 136 kts 82°
2026-04-22 21:05 51.12721 -0.34178 1958 ft 134 kts 82°
2026-04-22 21:05 51.12920 -0.32729 1779 ft 134 kts 81°
2026-04-22 21:05 51.13116 -0.31312 1612 ft 130 kts 81°
2026-04-22 21:06 51.13314 -0.29870 1411 ft 133 kts 79°
2026-04-22 21:06 51.13505 -0.28496 1242 ft 121 kts 79°
2026-04-22 21:06 51.13660 -0.27221 1046 ft 114 kts 81°
2026-04-22 21:06 51.13824 -0.25986 949 ft 117 kts 75°
2026-04-22 21:07 51.14023 -0.24703 799 ft 123 kts 77°
2026-04-22 21:07 51.14202 -0.23373 608 ft 123 kts 79°
2026-04-22 21:07 51.14384 -0.22041 431 ft 120 kts 78°
2026-04-22 21:07 51.14563 -0.20789 281 ft 115 kts 76°
2026-04-22 21:08 51.14751 -0.19494 222 ft 118 kts 77°
2026-04-22 21:08 51.14896 -0.18407 215 ft 84 kts 77°
2026-04-22 21:08 51.14998 -0.17677 213 ft 49 kts 77°
2026-04-22 21:08 51.15074 -0.17320 216 ft 29 kts 62°
2026-04-22 21:09 51.15164 -0.17217 218 ft 7 kts 357°
2026-04-22 21:09 51.15186 -0.17233 209 ft 3 kts 322°
2026-04-22 21:09 51.15193 -0.17242 220 ft 0 kts 322°
2026-04-22 21:12 51.15196 -0.17246 220 ft 6 kts 321°
2026-04-22 21:12 51.15279 -0.17338 218 ft 16 kts 340°
2026-04-22 21:12 51.15446 -0.17404 218 ft 31 kts 348°
2026-04-22 21:12 51.15619 -0.17463 216 ft 20 kts 348°
2026-04-22 21:13 51.15695 -0.17489 218 ft 0 kts 348°
2026-04-22 21:13 51.15701 -0.17491 218 ft 3 kts 348°
2026-04-22 21:13 51.15740 -0.17489 217 ft 6 kts 14°
2026-04-22 21:13 51.15768 -0.17461 220 ft 6 kts 43°
2026-04-22 21:14 51.15789 -0.17400 216 ft 5 kts 63°
2026-04-22 21:14 51.15794 -0.17385 222 ft 0 kts 63°
2026-04-22 21:14 51.15794 -0.17384 222 ft 0 kts 63°
2026-04-22 21:15 51.15798 -0.17377 220 ft 2 kts 54°
2026-04-22 21:15 51.15810 -0.17358 222 ft 0 kts 35°
2026-04-22 21:15 51.15813 -0.17358 222 ft 0 kts 22°
2026-04-22 21:15 51.15817 -0.17360 220 ft 1 kts 360°
2026-04-22 21:16 51.15827 -0.17375 222 ft 4 kts 322°
2026-04-22 21:16 51.15845 -0.17402 220 ft 0 kts 316°
2026-04-22 21:16 51.15851 -0.17408 217 ft 0 kts 322°
2026-04-22 21:16 51.15856 -0.17413 216 ft 1 kts 328°
2026-04-22 21:17 51.15858 -0.17415 216 ft 0 kts 330°